When you browse on this site, cookies collect data to enhance your experience and personalize the content and advertising you see.
Visit our Privacy Policy to learn more. By continuing to use the site, you agree to this use of cookies and data.
  • En España
  • Lista de países
  • Para 7 días
  • Temperatura del agua
  • El tiempo en el mapa
  • Informadores
  • user-avatar
    Iniciar sesión

    Tiempo cada hora Hartford

    Hoy, 21 Septiembre, Sábado

    Tiempo Temperatura Precipitaciones Viento Presión Humedad
    00:00 +12°C° 0 mm 5 mps 760 mmHg 73%
    01:00 +12°C° 0 mm 5 mps 759 mmHg 74%
    02:00 +12°C° 0 mm 5 mps 758 mmHg 75%
    03:00 +12°C° 0 mm 5 mps 758 mmHg 75%
    04:00 +12°C° 0 mm 5 mps 757 mmHg 76%
    05:00 +12°C° 0 mm 5 mps 757 mmHg 76%
    06:00 +12°C° 0 mm 5 mps 756 mmHg 77%
    07:00 +13°C° 0 mm 6 mps 756 mmHg 73%
    08:00 +14°C° 0 mm 6 mps 755 mmHg 70%
    09:00 +15°C° 0 mm 6 mps 755 mmHg 66%
    10:00 +16°C° 0 mm 6 mps 755 mmHg 63%
    11:00 +19°C° 0 mm 6 mps 754 mmHg 60%
    12:00 +20°C° 0 mm 6 mps 754 mmHg 57%
    13:00 +21°C° 0 mm 6 mps 753 mmHg 57%
    14:00 +21°C° 0 mm 6 mps 753 mmHg 57%
    15:00 +22°C° 0 mm 6 mps 752 mmHg 58%
    16:00 +21°C° 0 mm 5 mps 752 mmHg 60%
    17:00 +20°C° 0 mm 5 mps 752 mmHg 63%
    18:00 +19°C° 0 mm 5 mps 751 mmHg 66%
    19:00 +19°C° 0 mm 5 mps 751 mmHg 66%
    20:00 +17°C° 0 mm 5 mps 751 mmHg 67%
    21:00 +17°C° 0 mm 5 mps 751 mmHg 67%
    22:00 +16°C° 0.3 mm 5 mps 750 mmHg 71%
    23:00 +17°C° 0.3 mm 4 mps 750 mmHg 74%

    Mañana, 22 Septiembre, Domingo

    Tiempo Temperatura Precipitaciones Viento Presión Humedad
    00:00 +17°C° 0.3 mm 4 mps 750 mmHg 78%
    01:00 +17°C° 0.2 mm 4 mps 749 mmHg 80%
    02:00 +17°C° 0.2 mm 4 mps 749 mmHg 82%
    03:00 +17°C° 0.2 mm 3 mps 748 mmHg 84%
    04:00 +17°C° 0 mm 3 mps 748 mmHg 84%
    05:00 +17°C° 0 mm 3 mps 747 mmHg 85%
    06:00 +17°C° 0 mm 4 mps 747 mmHg 86%
    07:00 +18°C° 0 mm 4 mps 747 mmHg 85%
    08:00 +18°C° 0 mm 4 mps 747 mmHg 84%
    09:00 +19°C° 0 mm 4 mps 746 mmHg 83%
    10:00 +19°C° 0.3 mm 4 mps 746 mmHg 83%
    11:00 +19°C° 0.3 mm 4 mps 746 mmHg 84%
    12:00 +19°C° 0.3 mm 4 mps 747 mmHg 84%
    13:00 +18°C° 0.6 mm 4 mps 747 mmHg 85%
    14:00 +17°C° 0.6 mm 3 mps 746 mmHg 86%
    15:00 +16°C° 0.6 mm 3 mps 746 mmHg 87%
    16:00 +16°C° 0 mm 3 mps 747 mmHg 87%
    17:00 +16°C° 0 mm 3 mps 747 mmHg 87%
    18:00 +16°C° 0 mm 3 mps 747 mmHg 87%
    19:00 +16°C° 0 mm 3 mps 747 mmHg 88%
    20:00 +14°C° 0 mm 3 mps 747 mmHg 88%
    21:00 +14°C° 0 mm 2 mps 748 mmHg 89%
    22:00 +14°C° 0 mm 2 mps 748 mmHg 90%
    23:00 +14°C° 0 mm 2 mps 748 mmHg 91%

    Pasado mañana, 23 Septiembre, Lunes

    Tiempo Temperatura Precipitaciones Viento Presión Humedad
    00:00 +14°C° 0 mm 2 mps 748 mmHg 92%
    01:00 +14°C° 0.2 mm 2 mps 748 mmHg 92%
    02:00 +14°C° 0.2 mm 2 mps 749 mmHg 93%
    03:00 +14°C° 0.2 mm 2 mps 749 mmHg 93%
    04:00 +14°C° 0.1 mm 2 mps 749 mmHg 92%
    05:00 +13°C° 0.1 mm 2 mps 749 mmHg 91%
    06:00 +13°C° 0.1 mm 2 mps 750 mmHg 90%
    07:00 +13°C° 0 mm 3 mps 750 mmHg 86%
    08:00 +13°C° 0 mm 3 mps 750 mmHg 83%
    09:00 +14°C° 0 mm 3 mps 750 mmHg 79%
    10:00 +15°C° 0 mm 4 mps 750 mmHg 74%
    11:00 +16°C° 0 mm 5 mps 750 mmHg 70%
    12:00 +17°C° 0 mm 5 mps 750 mmHg 66%
    13:00 +17°C° 0.1 mm 6 mps 749 mmHg 68%
    14:00 +16°C° 0.1 mm 6 mps 749 mmHg 70%
    15:00 +16°C° 0.1 mm 6 mps 748 mmHg 72%
    16:00 +15°C° 0.8 mm 6 mps 748 mmHg 78%
    17:00 +14°C° 0.8 mm 6 mps 747 mmHg 84%
    18:00 +13°C° 0.8 mm 6 mps 747 mmHg 90%
    19:00 +14°C° 0.4 mm 6 mps 747 mmHg 91%
    20:00 +14°C° 0.4 mm 6 mps 746 mmHg 91%
    21:00 +15°C° 0.4 mm 6 mps 746 mmHg 92%
    22:00 +15°C° 0.3 mm 5 mps 746 mmHg 93%
    23:00 +15°C° 0.3 mm 5 mps 746 mmHg 94%

    24 Septiembre, Martes

    Tiempo Temperatura Precipitaciones Viento Presión Humedad
    00:00 +15°C° 0.3 mm 4 mps 746 mmHg 94%
    01:00 +15°C° 0.2 mm 4 mps 745 mmHg 94%
    02:00 +15°C° 0.2 mm 4 mps 745 mmHg 94%
    03:00 +14°C° 0.2 mm 4 mps 745 mmHg 94%
    04:00 +14°C° 0.1 mm 4 mps 745 mmHg 94%
    05:00 +14°C° 0.1 mm 4 mps 744 mmHg 94%
    06:00 +14°C° 0.1 mm 4 mps 744 mmHg 95%
    07:00 +14°C° 0.7 mm 4 mps 744 mmHg 93%
    08:00 +14°C° 0.7 mm 4 mps 743 mmHg 92%
    09:00 +16°C° 0.7 mm 3 mps 743 mmHg 90%
    10:00 +17°C° 0.9 mm 4 mps 743 mmHg 85%
    11:00 +17°C° 0.9 mm 5 mps 743 mmHg 80%
    12:00 +19°C° 0.9 mm 5 mps 743 mmHg 74%
    13:00 +17°C° 0.2 mm 5 mps 742 mmHg 73%
    14:00 +17°C° 0.2 mm 6 mps 742 mmHg 72%
    15:00 +17°C° 0.2 mm 6 mps 742 mmHg 70%
    16:00 +16°C° 1.5 mm 6 mps 741 mmHg 77%
    17:00 +15°C° 1.5 mm 6 mps 741 mmHg 83%
    18:00 +12°C° 1.5 mm 7 mps 740 mmHg 90%
    19:00 +14°C° 0.3 mm 7 mps 740 mmHg 89%
    20:00 +14°C° 0.3 mm 7 mps 739 mmHg 88%
    21:00 +14°C° 0.3 mm 7 mps 739 mmHg 87%
    22:00 +14°C° 0.3 mm 7 mps 738 mmHg 88%
    23:00 +13°C° 0.3 mm 8 mps 738 mmHg 89%

    25 Septiembre, Miércoles

    Tiempo Temperatura Precipitaciones Viento Presión Humedad
    00:00 +13°C° 0.3 mm 8 mps 738 mmHg 90%
    01:00 +13°C° 0.5 mm 8 mps 738 mmHg 90%
    02:00 +13°C° 0.5 mm 8 mps 738 mmHg 89%
    03:00 +13°C° 0.5 mm 8 mps 738 mmHg 89%
    04:00 +12°C° 0.3 mm 7 mps 739 mmHg 89%
    05:00 +13°C° 0.3 mm 6 mps 739 mmHg 88%
    06:00 +11°C° 0.3 mm 6 mps 740 mmHg 88%
    07:00 +13°C° 0.1 mm 5 mps 740 mmHg 86%
    08:00 +14°C° 0.1 mm 5 mps 741 mmHg 84%
    09:00 +14°C° 0.1 mm 5 mps 741 mmHg 82%
    10:00 +15°C° 0.3 mm 5 mps 742 mmHg 79%
    11:00 +16°C° 0.3 mm 6 mps 742 mmHg 76%
    12:00 +16°C° 0.3 mm 6 mps 743 mmHg 73%
    13:00 +16°C° 0.2 mm 6 mps 743 mmHg 72%
    14:00 +16°C° 0.2 mm 5 mps 743 mmHg 71%
    15:00 +17°C° 0.2 mm 5 mps 743 mmHg 70%
    16:00 +15°C° 0.1 mm 4 mps 743 mmHg 75%
    17:00 +14°C° 0.1 mm 3 mps 743 mmHg 79%
    18:00 +13°C° 0.1 mm 3 mps 743 mmHg 83%
    19:00 +13°C° 0 mm 3 mps 743 mmHg 85%
    20:00 +13°C° 0 mm 2 mps 743 mmHg 87%
    21:00 +13°C° 0 mm 2 mps 743 mmHg 89%
    22:00 +12°C° 0 mm 3 mps 743 mmHg 90%
    23:00 +12°C° 0 mm 3 mps 742 mmHg 90%

    26 Septiembre, Jueves

    Tiempo Temperatura Precipitaciones Viento Presión Humedad
    00:00 +12°C° 0 mm 4 mps 742 mmHg 91%
    01:00 +13°C° 1.3 mm 4 mps 741 mmHg 93%
    02:00 +13°C° 1.3 mm 4 mps 740 mmHg 94%
    03:00 +14°C° 1.3 mm 5 mps 740 mmHg 95%
    04:00 +14°C° 0.6 mm 5 mps 739 mmHg 94%
    05:00 +14°C° 0.6 mm 5 mps 739 mmHg 93%
    06:00 +14°C° 0.6 mm 5 mps 739 mmHg 91%
    07:00 +14°C° 0.2 mm 5 mps 739 mmHg 88%
    08:00 +15°C° 0.2 mm 6 mps 739 mmHg 86%
    09:00 +15°C° 0.2 mm 6 mps 739 mmHg 83%
    10:00 +16°C° 0.4 mm 7 mps 739 mmHg 77%
    11:00 +16°C° 0.4 mm 7 mps 740 mmHg 71%
    12:00 +16°C° 0.4 mm 8 mps 740 mmHg 65%
    13:00 +16°C° 0.2 mm 8 mps 740 mmHg 66%
    14:00 +16°C° 0.2 mm 7 mps 740 mmHg 67%
    15:00 +15°C° 0.2 mm 7 mps 740 mmHg 68%
    16:00 +15°C° 0.3 mm 6 mps 740 mmHg 72%
    17:00 +14°C° 0.3 mm 6 mps 740 mmHg 76%
    18:00 +13°C° 0.3 mm 5 mps 741 mmHg 80%
    19:00 +12°C° 0.3 mm 5 mps 741 mmHg 82%
    20:00 +12°C° 0.3 mm 5 mps 741 mmHg 83%
    21:00 +12°C° 0.3 mm 5 mps 741 mmHg 85%
    22:00 +10°C° 0.1 mm 5 mps 741 mmHg 85%
    23:00 +10°C° 0.1 mm 5 mps 741 mmHg 86%
    Mostrar más